| time (UTC) | temp F | wind direction | speed MPH | gust MPH | rain 1hr in | rain 24hr in | rain mn in | humidity % | barometer mb |
| 20260506204824 | 69 | 211 | 4.0 | 13.0 | 0.00 | 0.00 | 0.00 | 75 | 1007.4 |
| 20260506204316 | 68 | 205 | 6.0 | 13.0 | 0.00 | 0.00 | 0.00 | 75 | 1007.4 |
| 20260506203828 | 68 | 225 | 7.0 | 15.0 | 0.00 | 0.00 | 0.00 | 75 | 1007.3 |
| 20260506203339 | 68 | 220 | 5.0 | 15.0 | 0.00 | 0.00 | 0.00 | 75 | 1007.3 |
| 20260506202829 | 68 | 294 | 4.0 | 12.0 | 0.00 | 0.00 | 0.00 | 76 | 1007.4 |
| 20260506202325 | 68 | 217 | 6.0 | 15.0 | 0.00 | 0.00 | 0.00 | 76 | 1007.4 |
| 20260506201855 | 68 | 225 | 4.0 | 15.0 | 0.00 | 0.00 | 0.00 | 76 | 1007.4 |
| 20260506201325 | 68 | 221 | 5.0 | 12.0 | 0.00 | 0.00 | 0.00 | 76 | 1007.6 |
| 20260506200816 | 68 | 280 | 5.0 | 15.0 | 0.00 | 0.00 | 0.00 | 76 | 1007.6 |
| 20260506200328 | 68 | 178 | 7.0 | 15.0 | 0.00 | 0.00 | 0.00 | 77 | 1007.7 |
| 20260506195820 | 67 | 232 | 6.0 | 17.0 | 0.00 | 0.00 | 0.00 | 77 | 1007.6 |
| 20260506195351 | 67 | 289 | 6.0 | 16.0 | 0.00 | 0.00 | 0.00 | 77 | 1007.8 |
| 20260506194820 | 67 | 259 | 5.0 | 16.0 | 0.00 | 0.00 | 0.00 | 78 | 1007.7 |
| 20260506194315 | 67 | 252 | 8.0 | 16.0 | 0.00 | 0.00 | 0.00 | 79 | 1007.8 |
| 20260506193827 | 66 | 304 | 4.0 | 10.0 | 0.00 | 0.00 | 0.00 | 80 | 1007.9 |
| 20260506193323 | 66 | 169 | 3.0 | 13.0 | 0.00 | 0.00 | 0.00 | 80 | 1008.0 |
| 20260506192833 | 66 | 193 | 4.0 | 15.0 | 0.00 | 0.00 | 0.00 | 81 | 1008.0 |
| 20260506192346 | 65 | 265 | 5.0 | 15.0 | 0.00 | 0.00 | 0.00 | 82 | 1008.1 |
| 20260506191815 | 65 | 196 | 5.0 | 12.0 | 0.00 | 0.00 | 0.00 | 82 | 1008.1 |
| 20260506191326 | 65 | 238 | 4.0 | 14.0 | 0.00 | 0.00 | 0.00 | 82 | 1008.1 |
| 20260506190837 | 65 | 204 | 6.0 | 14.0 | 0.00 | 0.00 | 0.00 | 81 | 1008.1 |
| 20260506190326 | 65 | 178 | 6.0 | 15.0 | 0.00 | 0.00 | 0.00 | 81 | 1008.3 |
| 20260506185818 | 65 | 208 | 5.0 | 14.0 | 0.00 | 0.00 | 0.00 | 81 | 1008.2 |
| 20260506185329 | 65 | 192 | 6.0 | 14.0 | 0.00 | 0.00 | 0.00 | 82 | 1008.1 |
| 20260506184825 | 64 | 210 | 6.0 | 12.0 | 0.00 | 0.00 | 0.00 | 83 | 1008.1 |
| 20260506184317 | 63 | 169 | 6.0 | 13.0 | 0.00 | 0.00 | 0.00 | 84 | 1008.1 |
| 20260506183848 | 63 | 179 | 5.0 | 13.0 | 0.00 | 0.00 | 0.00 | 83 | 1008.2 |
| 20260506183319 | 63 | 159 | 5.0 | 16.0 | 0.00 | 0.00 | 0.00 | 83 | 1008.3 |
| 20260506182830 | 62 | 236 | 4.0 | 16.0 | 0.00 | 0.00 | 0.00 | 83 | 1008.3 |
| 20260506182321 | 62 | 196 | 6.0 | 12.0 | 0.00 | 0.00 | 0.00 | 83 | 1008.4 |
| 20260506181852 | 62 | 155 | 5.0 | 12.0 | 0.00 | 0.00 | 0.00 | 83 | 1008.4 |
| 20260506181322 | 61 | 152 | 6.0 | 13.0 | 0.00 | 0.00 | 0.00 | 83 | 1008.5 |
| 20260506180834 | 61 | 183 | 6.0 | 13.0 | 0.00 | 0.00 | 0.00 | 83 | 1008.6 |
| 20260506180324 | 62 | 196 | 5.0 | 12.0 | 0.00 | 0.00 | 0.00 | 83 | 1008.6 |
| 20260506175820 | 62 | 154 | 5.0 | 13.0 | 0.00 | 0.00 | 0.00 | 84 | 1008.8 |
| 20260506175331 | 62 | 172 | 5.0 | 11.0 | 0.00 | 0.00 | 0.00 | 85 | 1008.8 |
| 20260506174822 | 62 | 157 | 5.0 | 12.0 | 0.00 | 0.00 | 0.00 | 85 | 1008.9 |
| 20260506174314 | 62 | 114 | 5.0 | 13.0 | 0.00 | 0.00 | 0.00 | 85 | 1008.9 |
| 20260506173846 | 62 | 197 | 5.0 | 13.0 | 0.00 | 0.00 | 0.00 | 85 | 1008.9 |
| 20260506173315 | 62 | 171 | 3.0 | 13.0 | 0.00 | 0.00 | 0.00 | 85 | 1009.1 |
| 20260506172827 | 62 | 178 | 5.0 | 18.0 | 0.00 | 0.00 | 0.00 | 85 | 1009.0 |
| 20260506172317 | 62 | 138 | 4.0 | 11.0 | 0.00 | 0.00 | 0.00 | 84 | 1009.1 |
| 20260506171830 | 62 | 173 | 5.0 | 12.0 | 0.00 | 0.00 | 0.00 | 84 | 1009.2 |
| 20260506171326 | 62 | 167 | 5.0 | 12.0 | 0.00 | 0.00 | 0.00 | 83 | 1009.3 |
| 20260506170818 | 63 | 188 | 5.0 | 13.0 | 0.00 | 0.00 | 0.00 | 83 | 1009.2 |
| 20260506170330 | 63 | 186 | 6.0 | 15.0 | 0.00 | 0.00 | 0.00 | 83 | 1009.2 |
| 20260506165821 | 63 | 186 | 7.0 | 15.0 | 0.00 | 0.00 | 0.00 | 84 | 1009.4 |
| 20260506165352 | 63 | 173 | 7.0 | 15.0 | 0.00 | 0.00 | 0.00 | 85 | 1009.5 |
| 20260506164823 | 63 | 198 | 6.0 | 17.0 | 0.00 | 0.00 | 0.00 | 85 | 1009.8 |
| 20260506164354 | 63 | 150 | 6.0 | 17.0 | 0.00 | 0.00 | 0.00 | 84 | 1010.0 |
| 20260506163845 | 62 | 169 | 9.0 | 17.0 | 0.00 | 0.00 | 0.00 | 84 | 1010.2 |
| 20260506163315 | 63 | 182 | 6.0 | 19.0 | 0.00 | 0.00 | 0.00 | 84 | 1010.2 |
| 20260506162829 | 63 | 161 | 7.0 | 19.0 | 0.00 | 0.00 | 0.00 | 83 | 1010.3 |
| 20260506162324 | 63 | 161 | 9.0 | 16.0 | 0.00 | 0.00 | 0.00 | 82 | 1010.3 |
| 20260506161816 | 63 | 216 | 5.0 | 17.0 | 0.00 | 0.00 | 0.00 | 82 | 1010.3 |
| 20260506161327 | 63 | 209 | 8.0 | 17.0 | 0.00 | 0.00 | 0.00 | 82 | 1010.3 |
| 20260506160819 | 63 | 220 | 5.0 | 14.0 | 0.00 | 0.00 | 0.00 | 81 | 1010.3 |
| 20260506155833 | 63 | 204 | 7.0 | 15.0 | 0.00 | 0.00 | 0.00 | 80 | 1010.2 |
| 20260506155325 | 63 | 155 | 7.0 | 15.0 | 0.00 | 0.00 | 0.00 | 79 | 1010.2 |
| 20260506154818 | 64 | 161 | 7.0 | 16.0 | 0.00 | 0.00 | 0.00 | 79 | 1010.4 |
| 20260506154330 | 64 | 111 | 7.0 | 16.0 | 0.00 | 0.00 | 0.00 | 79 | 1010.5 |
| 20260506153822 | 64 | 202 | 6.0 | 14.0 | 0.00 | 0.00 | 0.00 | 79 | 1010.3 |
| 20260506153320 | 64 | 221 | 7.0 | 21.0 | 0.00 | 0.00 | 0.00 | 80 | 1010.3 |
| 20260506152852 | 64 | 184 | 6.0 | 21.0 | 0.00 | 0.00 | 0.00 | 80 | 1010.3 |
| 20260506152322 | 64 | 183 | 8.0 | 18.0 | 0.00 | 0.00 | 0.00 | 80 | 1010.3 |
| 20260506151814 | 64 | 190 | 7.0 | 17.0 | 0.00 | 0.00 | 0.00 | 80 | 1010.4 |
| 20260506151325 | 64 | 169 | 7.0 | 17.0 | 0.00 | 0.00 | 0.00 | 80 | 1010.5 |
| 20260506150836 | 64 | 199 | 8.0 | 18.0 | 0.00 | 0.00 | 0.00 | 79 | 1010.5 |
| 20260506150349 | 65 | 182 | 8.0 | 21.0 | 0.00 | 0.00 | 0.00 | 79 | 1010.5 |
| 20260506145820 | 65 | 142 | 7.0 | 22.0 | 0.00 | 0.00 | 0.00 | 78 | 1010.4 |
| 20260506145331 | 65 | 179 | 9.0 | 22.0 | 0.00 | 0.00 | 0.00 | 78 | 1010.5 |
| 20260506144825 | 66 | 184 | 9.0 | 22.0 | 0.00 | 0.00 | 0.00 | 78 | 1010.3 |
| 20260506144321 | 66 | 235 | 7.0 | 22.0 | 0.00 | 0.00 | 0.00 | 78 | 1010.4 |
| 20260506143832 | 65 | 181 | 8.0 | 17.0 | 0.00 | 0.00 | 0.00 | 79 | 1010.4 |
| 20260506143323 | 65 | 196 | 6.0 | 17.0 | 0.00 | 0.00 | 0.00 | 78 | 1010.4 |
| 20260506142816 | 64 | 160 | 6.0 | 11.0 | 0.00 | 0.00 | 0.00 | 77 | 1010.5 |
| 20260506142326 | 64 | 139 | 5.0 | 11.0 | 0.00 | 0.00 | 0.00 | 76 | 1010.5 |
| 20260506141838 | 65 | 168 | 5.0 | 13.0 | 0.00 | 0.00 | 0.00 | 75 | 1010.4 |
| 20260506141348 | 66 | 147 | 7.0 | 13.0 | 0.00 | 0.00 | 0.00 | 73 | 1010.4 |
| 20260506140839 | 67 | 209 | 5.0 | 10.0 | 0.00 | 0.00 | 0.00 | 72 | 1010.4 |
| 20260506140330 | 68 | 142 | 5.0 | 14.0 | 0.00 | 0.00 | 0.00 | 72 | 1010.4 |
| 20260506135824 | 68 | 163 | 5.0 | 14.0 | 0.00 | 0.00 | 0.00 | 72 | 1010.4 |
| 20260506135336 | 68 | 121 | 3.0 | 12.0 | 0.00 | 0.00 | 0.00 | 73 | 1010.5 |
| 20260506134846 | 68 | 186 | 6.0 | 12.0 | 0.00 | 0.00 | 0.00 | 73 | 1010.5 |
| 20260506134320 | 68 | 199 | 6.0 | 16.0 | 0.00 | 0.00 | 0.00 | 73 | 1010.7 |
| 20260506133832 | 68 | 199 | 7.0 | 17.0 | 0.00 | 0.00 | 0.00 | 73 | 1010.6 |
| 20260506133323 | 68 | 165 | 8.0 | 17.0 | 0.00 | 0.00 | 0.00 | 74 | 1010.6 |
| 20260506132855 | 68 | 136 | 6.0 | 15.0 | 0.00 | 0.00 | 0.00 | 75 | 1010.6 |
| 20260506132344 | 67 | 205 | 6.0 | 17.0 | 0.00 | 0.00 | 0.00 | 76 | 1011.0 |
| 20260506131815 | 67 | 223 | 5.0 | 15.0 | 0.00 | 0.00 | 0.00 | 76 | 1011.0 |
| 20260506131325 | 67 | 209 | 6.0 | 15.0 | 0.00 | 0.00 | 0.00 | 76 | 1011.0 |
| 20260506130817 | 66 | 178 | 5.0 | 12.0 | 0.00 | 0.00 | 0.00 | 77 | 1010.9 |
| 20260506130329 | 66 | 199 | 5.0 | 12.0 | 0.00 | 0.00 | 0.00 | 78 | 1010.9 |
| 20260506125824 | 65 | 157 | 4.0 | 12.0 | 0.00 | 0.00 | 0.00 | 79 | 1011.0 |
| 20260506125316 | 65 | 165 | 5.0 | 12.0 | 0.00 | 0.00 | 0.00 | 79 | 1010.9 |
| 20260506124828 | 64 | 69 | 4.0 | 14.0 | 0.00 | 0.00 | 0.00 | 80 | 1010.8 |
| 20260506124319 | 64 | 219 | 5.0 | 14.0 | 0.00 | 0.00 | 0.00 | 79 | 1010.7 |
| 20260506123851 | 64 | 207 | 5.0 | 13.0 | 0.00 | 0.00 | 0.00 | 79 | 1010.8 |
| 20260506123322 | 64 | 219 | 5.0 | 10.0 | 0.00 | 0.00 | 0.00 | 79 | 1010.8 |
| 20260506122834 | 65 | 178 | 5.0 | 12.0 | 0.00 | 0.00 | 0.00 | 79 | 1010.8 |
| 20260506122326 | 64 | 227 | 6.0 | 13.0 | 0.00 | 0.00 | 0.00 | 79 | 1011.0 |
| 20260506121821 | 64 | 221 | 5.0 | 13.0 | 0.00 | 0.00 | 0.00 | 79 | 1010.9 |
| 20260506121316 | 64 | 184 | 4.0 | 10.0 | 0.00 | 0.00 | 0.00 | 79 | 1010.9 |
| 20260506120831 | 64 | 200 | 4.0 | 11.0 | 0.00 | 0.00 | 0.00 | 79 | 1010.9 |
| 20260506120322 | 64 | 211 | 5.0 | 12.0 | 0.00 | 0.00 | 0.00 | 79 | 1011.0 |
| 20260506115833 | 64 | 173 | 3.0 | 14.0 | 0.00 | 0.00 | 0.00 | 79 | 1010.9 |
| 20260506115325 | 64 | 155 | 6.0 | 12.0 | 0.00 | 0.00 | 0.00 | 79 | 1010.9 |
| 20260506114836 | 64 | 175 | 5.0 | 12.0 | 0.00 | 0.00 | 0.00 | 80 | 1011.0 |
| 20260506114326 | 63 | 205 | 4.0 | 11.0 | 0.00 | 0.00 | 0.00 | 79 | 1011.1 |
| 20260506113838 | 63 | 155 | 5.0 | 12.0 | 0.00 | 0.00 | 0.00 | 80 | 1011.2 |
| 20260506113328 | 63 | 191 | 3.0 | 12.0 | 0.00 | 0.00 | 0.00 | 81 | 1011.2 |
| 20260506112822 | 62 | 187 | 5.0 | 13.0 | 0.00 | 0.00 | 0.00 | 82 | 1011.1 |
| 20260506112354 | 62 | 172 | 4.0 | 13.0 | 0.00 | 0.00 | 0.00 | 83 | 1011.2 |
| 20260506111824 | 62 | 150 | 5.0 | 14.0 | 0.00 | 0.00 | 0.00 | 84 | 1011.1 |
| 20260506111338 | 61 | 192 | 5.0 | 14.0 | 0.00 | 0.00 | 0.00 | 85 | 1011.1 |
| 20260506110829 | 61 | 228 | 3.0 | 11.0 | 0.00 | 0.00 | 0.00 | 86 | 1011.1 |
| 20260506110324 | 60 | 277 | 6.0 | 13.0 | 0.00 | 0.00 | 0.00 | 86 | 1011.1 |
| 20260506105819 | 60 | 179 | 4.0 | 10.0 | 0.00 | 0.00 | 0.00 | 87 | 1011.0 |
| 20260506105330 | 60 | 182 | 4.0 | 12.0 | 0.00 | 0.00 | 0.00 | 87 | 1011.0 |
| 20260506104825 | 60 | 188 | 4.0 | 12.0 | 0.00 | 0.00 | 0.00 | 87 | 1011.0 |
| 20260506104321 | 60 | 145 | 4.0 | 11.0 | 0.00 | 0.00 | 0.00 | 87 | 1011.0 |
| 20260506103831 | 60 | 201 | 4.0 | 10.0 | 0.00 | 0.00 | 0.00 | 87 | 1011.1 |
| 20260506103323 | 60 | 188 | 3.0 | 13.0 | 0.00 | 0.00 | 0.00 | 87 | 1011.1 |
| 20260506102834 | 60 | 182 | 5.0 | 13.0 | 0.00 | 0.00 | 0.00 | 87 | 1011.1 |
| 20260506102346 | 60 | 221 | 5.0 | 13.0 | 0.00 | 0.00 | 0.00 | 87 | 1010.9 |
| 20260506101815 | 60 | 155 | 5.0 | 11.0 | 0.00 | 0.00 | 0.00 | 86 | 1010.9 |
| 20260506101327 | 60 | 267 | 6.0 | 14.0 | 0.00 | 0.00 | 0.00 | 86 | 1010.9 |
| 20260506100818 | 60 | 222 | 5.0 | 14.0 | 0.00 | 0.00 | 0.00 | 86 | 1010.8 |
| 20260506100330 | 60 | 228 | 5.0 | 14.0 | 0.00 | 0.00 | 0.00 | 86 | 1010.9 |
| 20260506095826 | 60 | 198 | 6.0 | 11.0 | 0.00 | 0.00 | 0.00 | 86 | 1010.8 |
| 20260506095317 | 60 | 230 | 5.0 | 9.0 | 0.00 | 0.00 | 0.00 | 86 | 1010.8 |
| 20260506094832 | 60 | 227 | 4.0 | 9.0 | 0.00 | 0.00 | 0.00 | 86 | 1010.9 |
| 20260506094320 | 60 | 159 | 3.0 | 11.0 | 0.00 | 0.00 | 0.00 | 86 | 1010.9 |
| 20260506093833 | 60 | 219 | 4.0 | 11.0 | 0.00 | 0.00 | 0.00 | 86 | 1010.8 |
| 20260506093323 | 60 | 219 | 2.0 | 11.0 | 0.00 | 0.00 | 0.00 | 86 | 1010.9 |
| 20260506092814 | 60 | 213 | 4.0 | 14.0 | 0.00 | 0.00 | 0.00 | 87 | 1010.9 |
| 20260506092326 | 60 | 167 | 4.0 | 14.0 | 0.00 | 0.00 | 0.00 | 87 | 1011.0 |
| 20260506091838 | 60 | 213 | 4.0 | 14.0 | 0.00 | 0.00 | 0.00 | 87 | 1011.0 |
| 20260506091314 | 60 | 205 | 5.0 | 13.0 | 0.00 | 0.00 | 0.00 | 87 | 1011.0 |
| 20260506090827 | 60 | 168 | 5.0 | 12.0 | 0.00 | 0.00 | 0.00 | 87 | 1011.0 |
| 20260506090319 | 60 | 209 | 3.0 | 13.0 | 0.00 | 0.00 | 0.00 | 86 | 1011.1 |
| 20260506085831 | 60 | 226 | 6.0 | 13.0 | 0.00 | 0.00 | 0.00 | 86 | 1011.1 |
| 20260506085322 | 60 | 188 | 4.0 | 12.0 | 0.00 | 0.00 | 0.00 | 86 | 1011.2 |
| 20260506084854 | 60 | 194 | 5.0 | 9.0 | 0.00 | 0.00 | 0.00 | 86 | 1011.2 |
| 20260506084324 | 60 | 167 | 4.0 | 12.0 | 0.00 | 0.00 | 0.00 | 86 | 1011.1 |
| 20260506083816 | 60 | 213 | 5.0 | 16.0 | 0.00 | 0.00 | 0.00 | 86 | 1011.1 |
| 20260506083327 | 60 | 189 | 3.0 | 16.0 | 0.00 | 0.00 | 0.00 | 86 | 1011.2 |
| 20260506082827 | 60 | 228 | 5.0 | 11.0 | 0.00 | 0.00 | 0.00 | 86 | 1011.2 |
| 20260506082317 | 60 | 199 | 5.0 | 10.0 | 0.00 | 0.00 | 0.00 | 86 | 1011.2 |
| 20260506081829 | 61 | 213 | 5.0 | 13.0 | 0.00 | 0.00 | 0.00 | 86 | 1011.1 |
| 20260506081340 | 61 | 178 | 4.0 | 14.0 | 0.00 | 0.00 | 0.00 | 86 | 1011.2 |
| 20260506080831 | 61 | 190 | 6.0 | 14.0 | 0.00 | 0.00 | 0.00 | 85 | 1011.2 |
| 20260506080321 | 61 | 177 | 6.0 | 14.0 | 0.00 | 0.00 | 0.00 | 85 | 1011.1 |
| 20260506072829 | 61 | 197 | 4.0 | 8.0 | 0.00 | 0.00 | 0.00 | 85 | 1011.4 |
| 20260506072341 | 61 | 190 | 4.0 | 9.0 | 0.00 | 0.00 | 0.00 | 85 | 1011.5 |
| 20260506071830 | 61 | 200 | 4.0 | 14.0 | 0.00 | 0.00 | 0.00 | 84 | 1011.4 |
| 20260506071322 | 61 | 165 | 5.0 | 14.0 | 0.00 | 0.00 | 0.00 | 84 | 1011.5 |
| 20260506070833 | 61 | 216 | 4.0 | 12.0 | 0.00 | 0.00 | 0.00 | 84 | 1011.4 |
| 20260506070324 | 61 | 201 | 5.0 | 14.0 | 0.00 | 0.00 | 0.00 | 84 | 1011.4 |
| 20260506062319 | 62 | 207 | 7.0 | 15.0 | 0.00 | 0.00 | 0.00 | 82 | 1011.4 |
| 20260506061850 | 62 | 153 | 4.0 | 13.0 | 0.00 | 0.00 | 0.00 | 82 | 1011.3 |
| 20260506061325 | 62 | 192 | 5.0 | 10.0 | 0.00 | 0.00 | 0.00 | 82 | 1011.4 |
| 20260506060816 | 62 | 222 | 5.0 | 9.0 | 0.00 | 0.00 | 0.00 | 82 | 1011.4 |
| 20260506060328 | 62 | 219 | 4.0 | 10.0 | 0.00 | 0.00 | 0.00 | 82 | 1011.4 |
| 20260506051330 | 61 | 181 | 4.0 | 13.0 | 0.00 | 0.00 | 0.00 | 83 | 1011.8 |
| 20260506050822 | 61 | 206 | 5.0 | 13.0 | 0.00 | 0.00 | 0.00 | 82 | 1011.8 |
| 20260506050333 | 62 | 239 | 6.0 | 16.0 | 0.00 | 0.00 | 0.00 | 82 | 1011.9 |
| 20260506044827 | 62 | 205 | 8.0 | 16.0 | 0.00 | 0.00 | 0.00 | 82 | 1012.0 |
| 20260506044323 | 62 | 224 | 8.0 | 16.0 | 0.00 | 0.00 | 0.00 | 81 | 1012.0 |
| 20260506043855 | 62 | 209 | 6.0 | 16.0 | 0.00 | 0.00 | 0.00 | 81 | 1012.0 |
| 20260506043345 | 62 | 211 | 6.0 | 15.0 | 0.00 | 0.00 | 0.00 | 81 | 1012.0 |
| 20260506042815 | 62 | 196 | 5.0 | 13.0 | 0.00 | 0.00 | 0.00 | 81 | 1012.0 |
| 20260506042326 | 62 | 206 | 4.0 | 19.0 | 0.00 | 0.00 | 0.00 | 81 | 1012.0 |
| 20260506041820 | 62 | 160 | 8.0 | 19.0 | 0.00 | 0.00 | 0.00 | 80 | 1012.0 |
| 20260506041332 | 62 | 220 | 6.0 | 17.0 | 0.00 | 0.00 | 0.00 | 80 | 1012.0 |
| 20260506040823 | 62 | 186 | 6.0 | 17.0 | 0.00 | 0.00 | 0.00 | 80 | 1011.9 |
| 20260506040315 | 63 | 198 | 7.0 | 15.0 | 0.00 | 0.00 | 0.00 | 79 | 1011.9 |
| 20260506035824 | 63 | 195 | 6.0 | 15.0 | 0.00 | 0.00 | 0.00 | 79 | 1011.8 |
| 20260506035319 | 63 | 151 | 7.0 | 16.0 | 0.00 | 0.00 | 0.00 | 79 | 1011.9 |
| 20260506034834 | 63 | 174 | 6.0 | 16.0 | 0.00 | 0.00 | 0.00 | 78 | 1011.9 |
| 20260506034326 | 63 | 209 | 8.0 | 15.0 | 0.00 | 0.00 | 0.00 | 78 | 1012.0 |
| 20260506033817 | 63 | 203 | 8.0 | 15.0 | 0.00 | 0.00 | 0.00 | 78 | 1011.9 |
| 20260506033329 | 63 | 138 | 6.0 | 16.0 | 0.00 | 0.00 | 0.00 | 77 | 1011.9 |
| 20260506032820 | 64 | 200 | 7.0 | 16.0 | 0.00 | 0.00 | 0.00 | 77 | 1011.9 |
| 20260506032332 | 64 | 163 | 6.0 | 16.0 | 0.00 | 0.00 | 0.00 | 77 | 1011.9 |
| 20260506031824 | 64 | 197 | 8.0 | 16.0 | 0.00 | 0.00 | 0.00 | 76 | 1011.9 |
| 20260506031319 | 64 | 105 | 5.0 | 14.0 | 0.00 | 0.00 | 0.00 | 75 | 1011.9 |
| 20260506030831 | 64 | 165 | 7.0 | 17.0 | 0.00 | 0.00 | 0.00 | 75 | 1011.9 |
| 20260506030343 | 65 | 231 | 8.0 | 17.0 | 0.00 | 0.00 | 0.00 | 74 | 1011.9 |
| 20260506025833 | 65 | 194 | 7.0 | 16.0 | 0.00 | 0.00 | 0.00 | 74 | 1012.0 |
| 20260506025325 | 65 | 188 | 9.0 | 18.0 | 0.00 | 0.00 | 0.00 | 73 | 1011.9 |
| 20260506024816 | 65 | 209 | 6.0 | 18.0 | 0.00 | 0.00 | 0.00 | 73 | 1012.0 |
| 20260506024328 | 66 | 207 | 7.0 | 18.0 | 0.00 | 0.00 | 0.00 | 73 | 1012.0 |
| 20260506023819 | 66 | 181 | 7.0 | 18.0 | 0.00 | 0.00 | 0.00 | 72 | 1012.0 |
| 20260506023315 | 66 | 232 | 8.0 | 20.0 | 0.00 | 0.00 | 0.00 | 71 | 1012.0 |
| 20260506022826 | 66 | 231 | 8.0 | 20.0 | 0.00 | 0.00 | 0.00 | 71 | 1012.0 |
| 20260506022321 | 66 | 201 | 8.0 | 23.0 | 0.00 | 0.00 | 0.00 | 72 | 1012.0 |
| 20260506021834 | 66 | 204 | 7.0 | 23.0 | 0.00 | 0.00 | 0.00 | 72 | 1012.1 |
| 20260506021325 | 66 | 213 | 7.0 | 17.0 | 0.00 | 0.00 | 0.00 | 73 | 1012.1 |
| 20260506020837 | 65 | 234 | 8.0 | 17.0 | 0.00 | 0.00 | 0.00 | 74 | 1012.1 |
| 20260506020327 | 65 | 167 | 7.0 | 14.0 | 0.00 | 0.00 | 0.00 | 74 | 1012.1 |
| 20260506015822 | 66 | 175 | 8.0 | 19.0 | 0.00 | 0.00 | 0.00 | 73 | 1012.1 |
| 20260506015333 | 66 | 201 | 9.0 | 19.0 | 0.00 | 0.00 | 0.00 | 73 | 1012.0 |
| 20260506014829 | 66 | 174 | 7.0 | 18.0 | 0.00 | 0.00 | 0.00 | 72 | 1012.0 |
| 20260506014320 | 66 | 161 | 7.0 | 18.0 | 0.00 | 0.00 | 0.00 | 71 | 1012.0 |
| 20260506013343 | 67 | 188 | 9.0 | 19.0 | 0.00 | 0.00 | 0.00 | 69 | 1011.9 |
| 20260506012834 | 67 | 200 | 9.0 | 24.0 | 0.00 | 0.00 | 0.00 | 69 | 1011.9 |
| 20260506012324 | 67 | 270 | 9.0 | 24.0 | 0.00 | 0.00 | 0.00 | 68 | 1011.8 |
| 20260506011816 | 67 | 189 | 7.0 | 21.0 | 0.00 | 0.00 | 0.00 | 67 | 1011.8 |
| 20260506011326 | 67 | 191 | 9.0 | 21.0 | 0.00 | 0.00 | 0.00 | 67 | 1011.8 |
| 20260506010818 | 67 | 201 | 9.0 | 21.0 | 0.00 | 0.00 | 0.00 | 67 | 1011.6 |
| 20260506010333 | 67 | 182 | 7.0 | 20.0 | 0.00 | 0.00 | 0.00 | 67 | 1011.5 |
| 20260506005824 | 67 | 160 | 6.0 | 20.0 | 0.00 | 0.00 | 0.00 | 68 | 1011.6 |
| 20260506005338 | 67 | 167 | 7.0 | 19.0 | 0.00 | 0.00 | 0.00 | 67 | 1011.5 |
| 20260506004848 | 67 | 232 | 9.0 | 21.0 | 0.00 | 0.00 | 0.00 | 65 | 1011.4 |
| 20260506004318 | 67 | 187 | 8.0 | 18.0 | 0.00 | 0.00 | 0.00 | 65 | 1011.4 |
| 20260506003830 | 67 | 191 | 8.0 | 16.0 | 0.00 | 0.00 | 0.00 | 66 | 1011.4 |
| 20260506003322 | 67 | 244 | 6.0 | 14.0 | 0.00 | 0.00 | 0.00 | 67 | 1011.3 |
| 20260506002834 | 67 | 213 | 7.0 | 15.0 | 0.00 | 0.00 | 0.00 | 68 | 1011.3 |
| 20260506002326 | 67 | 190 | 5.0 | 18.0 | 0.00 | 0.00 | 0.00 | 68 | 1011.3 |
| 20260506001822 | 67 | 135 | 7.0 | 16.0 | 0.00 | 0.00 | 0.00 | 68 | 1011.3 |
| 20260506001313 | 67 | 194 | 8.0 | 15.0 | 0.00 | 0.00 | 0.00 | 67 | 1011.2 |
| 20260506000828 | 68 | 234 | 5.0 | 14.0 | 0.00 | 0.00 | 0.00 | 66 | 1011.2 |
| 20260506000319 | 69 | 150 | 5.0 | 18.0 | 0.00 | 0.00 | 0.00 | 64 | 1011.2 |
| 20260505235813 | 69 | 189 | 6.0 | 22.0 | 0.00 | 0.00 | 0.00 | 61 | 1011.1 |
| 20260505235328 | 69 | 133 | 6.0 | 22.0 | 0.00 | 0.00 | 0.00 | 61 | 1011.0 |
| 20260505234819 | 69 | 207 | 7.0 | 27.0 | 0.00 | 0.00 | 0.00 | 61 | 1010.9 |
| 20260505234331 | 69 | 211 | 8.0 | 27.0 | 0.00 | 0.00 | 0.00 | 62 | 1010.8 |
| 20260505233827 | 68 | 218 | 8.0 | 19.0 | 0.00 | 0.00 | 0.00 | 63 | 1010.8 |
| 20260505233321 | 68 | 188 | 8.0 | 19.0 | 0.00 | 0.00 | 0.00 | 66 | 1010.7 |
| 20260505232833 | 68 | 144 | 6.0 | 17.0 | 0.00 | 0.00 | 0.00 | 66 | 1010.7 |
| 20260505232326 | 68 | 199 | 7.0 | 22.0 | 0.00 | 0.00 | 0.00 | 65 | 1010.6 |
| 20260505231817 | 69 | 136 | 10.0 | 22.0 | 0.00 | 0.00 | 0.00 | 65 | 1010.5 |
| 20260505231328 | 69 | 146 | 8.0 | 20.0 | 0.00 | 0.00 | 0.00 | 64 | 1010.5 |
| 20260505230820 | 69 | 178 | 8.0 | 23.0 | 0.00 | 0.00 | 0.00 | 64 | 1010.3 |
| 20260505230331 | 69 | 178 | 9.0 | 23.0 | 0.00 | 0.00 | 0.00 | 64 | 1010.3 |
| 20260505225825 | 70 | 194 | 7.0 | 21.0 | 0.00 | 0.00 | 0.00 | 64 | 1010.2 |
| 20260505225320 | 70 | 148 | 9.0 | 21.0 | 0.00 | 0.00 | 0.00 | 63 | 1010.2 |
| 20260505224832 | 70 | 171 | 7.0 | 22.0 | 0.00 | 0.00 | 0.00 | 62 | 1010.1 |
| 20260505224322 | 70 | 217 | 7.0 | 18.0 | 0.00 | 0.00 | 0.00 | 62 | 1010.2 |
| 20260505223814 | 70 | 191 | 8.0 | 21.0 | 0.00 | 0.00 | 0.00 | 62 | 1010.1 |
| 20260505223345 | 70 | 138 | 12.0 | 21.0 | 0.00 | 0.00 | 0.00 | 62 | 1010.1 |
| 20260505222835 | 70 | 232 | 8.0 | 23.0 | 0.00 | 0.00 | 0.00 | 63 | 1010.0 |
| 20260505222327 | 70 | 182 | 9.0 | 23.0 | 0.00 | 0.00 | 0.00 | 64 | 1010.0 |
| 20260505221818 | 69 | 176 | 9.0 | 23.0 | 0.00 | 0.00 | 0.00 | 64 | 1010.0 |
| 20260505221314 | 69 | 171 | 10.0 | 23.0 | 0.00 | 0.00 | 0.00 | 65 | 1010.0 |
| 20260505220825 | 70 | 215 | 11.0 | 20.0 | 0.00 | 0.00 | 0.00 | 64 | 1010.0 |
| 20260505220317 | 70 | 301 | 8.0 | 24.0 | 0.00 | 0.00 | 0.00 | 63 | 1010.0 |
| 20260505215829 | 70 | 178 | 12.0 | 24.0 | 0.00 | 0.00 | 0.00 | 63 | 1009.9 |
| 20260505215320 | 71 | 244 | 10.0 | 22.0 | 0.00 | 0.00 | 0.00 | 63 | 1009.9 |
| 20260505214830 | 71 | 178 | 6.0 | 19.0 | 0.00 | 0.00 | 0.00 | 63 | 1009.8 |
| 20260505214322 | 71 | 184 | 7.0 | 19.0 | 0.00 | 0.00 | 0.00 | 63 | 1009.7 |
| 20260505213833 | 71 | 166 | 8.0 | 26.0 | 0.00 | 0.00 | 0.00 | 62 | 1009.8 |
| 20260505213345 | 71 | 173 | 10.0 | 26.0 | 0.00 | 0.00 | 0.00 | 62 | 1009.7 |
| 20260505212823 | 71 | 161 | 8.0 | 19.0 | 0.00 | 0.00 | 0.00 | 62 | 1009.7 |
| 20260505212333 | 71 | 207 | 9.0 | 17.0 | 0.00 | 0.00 | 0.00 | 63 | 1009.6 |
| 20260505211824 | 71 | 146 | 8.0 | 20.0 | 0.00 | 0.00 | 0.00 | 64 | 1009.6 |
| 20260505210850 | 71 | 242 | 11.0 | 21.0 | 0.00 | 0.00 | 0.00 | 64 | 1009.5 |
| 20260505210320 | 71 | 94 | 7.0 | 17.0 | 0.00 | 0.00 | 0.00 | 64 | 1009.5 |
| 20260505205835 | 71 | 142 | 9.0 | 21.0 | 0.00 | 0.00 | 0.00 | 64 | 1009.4 |
| 20260505205324 | 71 | 136 | 10.0 | 26.0 | 0.00 | 0.00 | 0.00 | 64 | 1009.4 |